IW6NXR-13 Weather Reports


time (UTC)temp
C
wind
direction
speed
KPH
gust
KPH
rain 1hr
cm
rain 24hr
cm
rain mn
cm
humidity
%
barometer
mb
20260507181041 17 0.0 0.0 0.00 0.00 0.00 1014.1
20260507175040 18 0.0 0.0 0.00 0.00 0.00 1014.0
20260507173040 18 0.0 0.0 0.00 0.00 0.00 1013.8
20260507171040 20 0.0 0.0 0.00 0.00 0.00 1013.5
20260507165039 20 0.0 0.0 0.00 0.00 0.00 1013.4
20260507163039 21 0.0 0.0 0.00 0.00 0.00 1013.3
20260507161039 21 0.0 0.0 0.00 0.00 0.00 1013.5
20260507155038 20 0.0 0.0 0.00 0.00 0.00 1013.6
20260507153038 22 0.0 0.0 0.00 0.00 0.00 1013.3
20260507151038 22 0.0 0.0 0.00 0.00 0.00 1013.5
20260507145037 22 0.0 0.0 0.00 0.00 0.00 1013.4
20260507143037 22 0.0 0.0 0.00 0.00 0.00 1013.6
20260507141037 23 0.0 0.0 0.00 0.00 0.00 1013.7
20260507135036 24 0.0 0.0 0.00 0.00 0.00 1013.4
20260507133036 25 0.0 0.0 0.00 0.00 0.00 1013.5
20260507131036 24 0.0 0.0 0.00 0.00 0.00 1013.7
20260507125035 25 0.0 0.0 0.00 0.00 0.00 1013.9
20260507123035 27 0.0 0.0 0.00 0.00 0.00 1013.8
20260507121035 28 0.0 0.0 0.00 0.00 0.00 1013.9
20260507115035 27 0.0 0.0 0.00 0.00 0.00 1014.0
20260507113034 27 0.0 0.0 0.00 0.00 0.00 1013.9
20260507111034 31 0.0 0.0 0.00 0.00 0.00 1013.8
20260507105033 32 0.0 0.0 0.00 0.00 0.00 1013.8
20260507103033 35 0.0 0.0 0.00 0.00 0.00 1014.1
20260507101033 31 0.0 0.0 0.00 0.00 0.00 1013.9
20260507095033 30 0.0 0.0 0.00 0.00 0.00 1013.9
20260507093032 35 0.0 0.0 0.00 0.00 0.00 1013.9
20260507091032 34 0.0 0.0 0.00 0.00 0.00 1014.1
20260507085032 38 0.0 0.0 0.00 0.00 0.00 1014.0
20260507083031 35 0.0 0.0 0.00 0.00 0.00 1014.3
20260507081031 26 0.0 0.0 0.00 0.00 0.00 1014.3
20260507075031 25 0.0 0.0 0.00 0.00 0.00 1014.0
20260507073030 32 0.0 0.0 0.00 0.00 0.00 1013.9
20260507071030 32 0.0 0.0 0.00 0.00 0.00 1014.1
20260507065030 28 0.0 0.0 0.00 0.00 0.00 1014.3
20260507063029 19 0.0 0.0 0.00 0.00 0.00 1014.4
20260507061029 18 0.0 0.0 0.00 0.00 0.00 1014.6
20260507055029 18 0.0 0.0 0.00 0.00 0.00 1014.3
20260507053029 17 0.0 0.0 0.00 0.00 0.00 1014.1
20260507051028 17 0.0 0.0 0.00 0.00 0.00 1013.7
20260507045028 17 0.0 0.0 0.00 0.00 0.00 1013.4
20260507043027 17 0.0 0.0 0.00 0.00 0.00 1013.3
20260507041027 17 0.0 0.0 0.00 0.00 0.00 1013.1
20260506222922 16 0.0 0.0 0.00 0.00 0.00 1011.9
20260506220923 16 0.0 0.0 0.00 0.00 0.00 1011.9
20260506214922 17 0.0 0.0 0.00 0.00 0.00 1011.9
20260506212922 17 0.0 0.0 0.00 0.00 0.00 1012.0
20260506202921 18 0.0 0.0 0.00 0.00 0.00 1012.0
20260506200921 18 0.0 0.0 0.00 0.00 0.00 1011.9
20260506194920 18 0.0 0.0 0.00 0.00 0.00 1011.9
20260506190921 17 0.0 0.0 0.00 0.00 0.00 1011.3
20260506184919 17 0.0 0.0 0.00 0.00 0.00 1011.1
20260506182921 18 0.0 0.0 0.00 0.00 0.00 1011.1